User: anonymous   Login
Location: Marseilles
(40.7010°N, 83.3930°W)
Time: 20:49:41
(UTC-04:00)
Language:

Cosmos 1459 Rocket - Orbit

View from above orbital plane
View from above orbital plane
View from above satellite
View from above satellite

Ground track
Ground track

The orbit data is extracted from the following two-line orbital elements,

1 14059U 83042B   17295.57817679 +.00000102 +00000-0 +85307-4 0  9990
2 14059 082.9708 327.3810 0041208 268.9614 090.6823 13.78599434733048
Epoch (UTC): 22 October 2017 13:52:34
Eccentricity: 0.0041208
inclination: 82.9708°
perigee height: 938 km
apogee height: 999 km
right ascension of ascending node: 327.3810°
argument of perigee: 268.9614°
revolutions per day: 13.78599434
mean anomaly at epoch: 90.6823°
orbit number at epoch: 73304

The dashed part of the orbit path shows where the satellite is in the earth's shadow,  

DLR